TimeCET,TemperatureF,Dew PointF,Humidity,Sea Level PressureIn,VisibilityMPH,Wind Direction,Wind SpeedMPH,Gust SpeedMPH,PrecipitationIn,Events,Conditions,WindDirDegrees,DateUTC
12:00 AM,26.6,24.8,93,30.09,-9999.0,Calm,Calm,-,N/A,,Clear,0,2013-03-02 23:00:00
1:00 AM,26.6,24.8,93,30.09,-9999.0,Calm,Calm,-,N/A,,Clear,0,2013-03-03 00:00:00
2:00 AM,24.8,23.0,93,30.09,-9999.0,Calm,Calm,-,N/A,,Clear,0,2013-03-03 01:00:00
3:00 AM,24.8,21.2,86,30.06,-9999.0,Calm,Calm,-,N/A,,Clear,0,2013-03-03 02:00:00
4:00 AM,23.0,21.2,93,30.06,-9999.0,Calm,Calm,-,N/A,,Clear,0,2013-03-03 03:00:00
5:00 AM,24.8,21.2,86,30.06,-9999.0,Calm,Calm,-,N/A,,Clear,0,2013-03-03 04:00:00
6:00 AM,26.6,23.0,86,30.06,-9999.0,Variable,2.3,-,N/A,,Clear,0,2013-03-03 05:00:00
7:00 AM,26.6,21.2,80,30.06,-9999.0,West,6.9,-,N/A,,Clear,270,2013-03-03 06:00:00
8:00 AM,30.2,24.8,80,30.06,6.2,WSW,3.5,-,N/A,,Mostly Cloudy,240,2013-03-03 07:00:00
10:00 AM,33.8,26.6,75,30.09,6.2,WNW,9.2,-,N/A,,Overcast,290,2013-03-03 09:00:00
11:00 AM,35.6,26.6,70,30.09,6.2,West,9.2,-,N/A,,Overcast,280,2013-03-03 10:00:00
12:00 PM,35.6,28.4,75,30.12,6.2,WNW,11.5,-,N/A,,Overcast,290,2013-03-03 11:00:00
1:00 PM,35.6,28.4,75,30.12,6.2,WNW,11.5,-,N/A,,Overcast,300,2013-03-03 12:00:00
2:00 PM,35.6,26.6,70,30.09,6.2,WNW,11.5,-,N/A,,Mostly Cloudy,300,2013-03-03 13:00:00
3:00 PM,37.4,24.8,60,30.09,6.2,WNW,15.0,-,N/A,,Mostly Cloudy,290,2013-03-03 14:00:00
4:00 PM,37.4,24.8,60,30.09,6.2,WNW,9.2,-,N/A,,Mostly Cloudy,300,2013-03-03 15:00:00
5:00 PM,37.4,24.8,60,30.09,6.2,WNW,9.2,-,N/A,,Overcast,290,2013-03-03 16:00:00
6:00 PM,35.6,24.8,65,30.12,6.2,WNW,5.8,-,N/A,,Overcast,290,2013-03-03 17:00:00
7:00 PM,35.6,24.8,65,30.12,6.2,WNW,8.1,-,N/A,,Scattered Clouds,300,2013-03-03 18:00:00
8:00 PM,35.6,24.8,65,30.15,6.2,WNW,6.9,-,N/A,,Mostly Cloudy,290,2013-03-03 19:00:00
9:00 PM,35.6,24.8,65,30.15,6.2,WNW,5.8,-,N/A,,Mostly Cloudy,290,2013-03-03 20:00:00
10:00 PM,35.6,24.8,65,30.18,6.2,WNW,3.5,-,N/A,,Mostly Cloudy,290,2013-03-03 21:00:00
11:00 PM,32.0,26.6,80,30.18,6.2,West,2.3,-,N/A,,Mostly Cloudy,270,2013-03-03 22:00:00